This is the latest recevied weather packets stored in our database for station/object S50ME-11. If no packets are shown the sender has not sent any weather packets the latest 10 day(s).
| Time | Temp. | Humidity | Pressure | Rain* | Wind** | Luminosity | Snow |
|---|---|---|---|---|---|---|---|
| 1777967152 | 27.22° C | 37% | 1013.2 hPa | - | - | - | - |
| 1777967149 | 27.22° C | 37% | 1013.2 hPa | - | - | - | - |
| 1777966251 | 26.67° C | 37% | 1012.9 hPa | - | - | - | - |
| 1777966248 | 26.67° C | 37% | 1012.9 hPa | - | - | - | - |
| 1777965351 | 25.56° C | 37% | 1013 hPa | - | - | - | - |
| 1777965348 | 25.56° C | 37% | 1013 hPa | - | - | - | - |
| 1777964621 | 24.44° C | 37% | 1014 hPa | - | - | - | - |
| 1777964451 | 24.44° C | 37% | 1014 hPa | - | - | - | - |
| 1777964447 | 24.44° C | 37% | 1014 hPa | - | - | - | - |
| 1777963551 | 23.33° C | 38% | 1014.8 hPa | - | - | - | - |
| 1777963547 | 23.33° C | 38% | 1014.8 hPa | - | - | - | - |
| 1777962651 | 21.67° C | 38% | 1014.9 hPa | - | - | - | - |
| 1777962647 | 21.67° C | 38% | 1014.9 hPa | - | - | - | - |
| 1777961752 | 20° C | 39% | 1014.2 hPa | - | - | - | - |
| 1777961746 | 20° C | 39% | 1014.2 hPa | - | - | - | - |
| 1777960855 | 18.89° C | 39% | 1013.7 hPa | - | - | - | - |
| 1777960852 | 18.89° C | 39% | 1013.7 hPa | - | - | - | - |
| 1777959955 | 16.67° C | 40% | 1013.8 hPa | - | - | - | - |
| 1777959952 | 16.67° C | 40% | 1013.8 hPa | - | - | - | - |
| 1777959052 | 15° C | 41% | 1014.1 hPa | - | - | - | - |
| 1777958155 | 13.33° C | 41% | 1014.1 hPa | - | - | - | - |
| 1777958151 | 13.33° C | 41% | 1014.1 hPa | - | - | - | - |
| 1777957254 | 12.22° C | 41% | 1016.1 hPa | - | - | - | - |
| 1777957251 | 12.22° C | 41% | 1016.1 hPa | - | - | - | - |
| 1777956354 | 11.67° C | 42% | 1015.3 hPa | - | - | - | - |
* Rain since midnight (hover to see other rain measurements)
** Current wind speed in m/s (hover to see current wind gust speed)